Location: Ago
(8.4667°N, 4.4833°E)
Time: 23:14:19
(UTC+00:00)

Cosmos 1975 Rocket - Pass Details

Date: 18 September 2020
Orbit: 603 x 635 km, 82.5° (Epoch: 20 October)

Event Time Altitude Azimuth Distance (km) Brightness Sun altitude
Rises 19:15:59 0° 352° (N) 2,841 6.6 -24.5°
Reaches altitude 10° 19:18:12 10° 351° (N) 1,939 5.8 -25.0°
Enters shadow 19:21:55 62° 318° (NW) 676 3.3 -25.9°
